Regional Weather Roundup
Issued by NWS Northern Indiana

Home | Current Version | Previous Version | Graphics & Text | Print | Product List | Glossary On
Versions: 1 2 3 4 5 6 7 8 9 10 11 12 13 14 15 16 17 18 19 20 21 22 23 24 25 26 27 28 29 30 31 32 33 34 35 36 37 38 39 40 41 42 43 44 45 46 47 48 49 50
000
ASUS43 KIWX 161500
RWRIWX

KIWX WEATHER ROUNDUP
NATIONAL WEATHER SERVICE NORTHERN INDIANA
1000 AM EST MON JAN 16 2017

NOTE: "FAIR" INDICATES FEW OR NO CLOUDS BELOW 12,000 FEET WITH NO
SIGNIFICANT WEATHER AND/OR OBSTRUCTIONS TO VISIBILITY.

* THESE STATIONS ARE NOT UNDER NWS QUALITY CONTROL. THEY ALSO MAY NOT
  REPORT WEATHER SUCH AS PRECIPITATION OR FOG.

INZ001>027-161600-
NORTHERN INDIANA

CITY           SKY/WX    TMP DP  RH WIND       PRES   REMARKS
GARY*          FOG       34  32  93 VRB5      30.27F VSB 1   WCI  30
KNOX*          CLOUDY    32  27  80 NE3       30.27R VSB 3/4
SOUTH BEND     MIX PCPN  32  28  85 E6        30.28R FOG     WCI  26
ELKHART*       CLOUDY    32  28  86 E6        30.28R HAZE    WCI  26
GOSHEN         LGT RAIN  33  29  85 NE3       30.28R FOG
FORT WAYNE     LGT RAIN  33  30  88 E8        30.28S FOG     WCI  26

$$
INZ028>050-161600-
CENTRAL INDIANA

CITY           SKY/WX    TMP DP  RH WIND       PRES   REMARKS
LAFAYETTE      CLOUDY    36  36 100 E6        30.24S FOG
KOKOMO*        CLOUDY    34  33  96 E7        30.26S FOG     WCI  28
MUNCIE*        CLOUDY    39  36  89 SE5       30.26S FOG
INDIANAPOLIS   FOG       39  37  92 SE8       30.25S VSB 1/2

$$
MIZ043>046-050>051-056>058-064>065-071>073-077>080-161600-
SOUTHWEST LOWER MICHIGAN

CITY           SKY/WX    TMP DP  RH WIND       PRES   REMARKS
BATTLE CREEK   FRZ RAIN  30  26  85 E3        30.30S FOG
BENTON HARBOR  CLOUDY    33  28  81 E3        30.28F HAZE
COLDWATER*     CLOUDY    32  29  89 E8        30.29S FOG     WCI  25
HILLSDALE*     MIX PCPN  30  28  93 E3        30.29R
HOLLAND        FRZ RAIN  31  26  82 E3        30.30S
GRAND RAPIDS   CLOUDY    28  22  78 S5        30.30S WCI  23
KALAMAZOO      CLOUDY    31  26  82 SE3       30.30S HAZE
STURGIS*       CLOUDY    32  28  83 E6        30.28R WCI  26
THREE RIVERS*  CLOUDY    31  27  84 E3        30.30R FOG

$$
OHZ001>008-015>018-024>025-161600-
NORTHWEST OHIO

CITY           SKY/WX    TMP DP  RH WIND       PRES   REMARKS
DEFIANCE       CLOUDY    33  28  81 E6        30.31S HAZE    WCI  28
FINDLAY        CLOUDY    34  28  79 E6        30.30S HAZE    WCI  29
TOLEDO EXPRESS CLOUDY    30  28  92 E6        30.32S FOG     WCI  24
TOLEDO METCALF CLOUDY    32  29  88 E3        30.34R FOG
LIMA           CLOUDY    34  33  96 E5        30.28S FOG     WCI  30

$$
AND FOR LAKE MICHIGAN COASTAL AND OPEN LAKE BUOY OBSERVATIONS

STATION/POSITION TEMP    WIND        PRES    VSBY  WAVE
                 AIR SEA DIR/SP/G                  HT/PER
                 (F)     (DEG/KT/KT) (MB)    (MI)  (FT/S)
CALUMET HARBOR    33     100/  3/  7 1024.3R
MICHIGAN CITY     33      60/  5/  6   N/A
BURNS HARBOR      32      90/  7/  8 1025.4S
SAINT JOSEPH      32     110/  2/  4 1026.1

$$
&&



USA.gov is the U.S. government's official web portal to all federal, state and local government web resources and services.